Regional Weather Roundup
Issued by NWS

Home | Current Version | Previous Version | Text Only | Print | Product List | Glossary On
Versions: 1 2 3 4 5 6 7 8 9 10 11 12 13 14 15 16 17 18 19 20 21 22 23 24 25 26 27 28 29 30 31 32 33 34 35 36 37 38 39 40 41 42 43 44 45 46 47 48 49 50
000
ASUS44 KLIX 280607
RWRLA
LOUISIANA WEATHER ROUNDUP
NATIONAL WEATHER SERVICE NEW ORLEANS LA
100 AM CDT FRI AUG 28 2015

NOTE: "FAIR" INDICATES FEW OR NO CLOUDS BELOW 12,000 FEET WITH NO
      SIGNIFICANT WEATHER AND/OR OBSTRUCTIONS TO VISIBILITY.
      SKY/WX - SKY CONDITION AND SIGNIFICANT WEATHER.
      TMP - AIR TEMPERATURE.    DP   - DEWPOINT TEMPERATURE.
      RH  - RELATIVE HUMIDITY.  PRES - PRESSURE.
      HX  - HEAT INDEX.         WCI  - WIND CHILL INDEX.

*  THESE STATIONS ARE NOT NWS OR FAA STATIONS AND ARE NOT UNDER
   NWS QUALITY CONTROL.

LAZ040-048-061>063-065-066-069-280700-
SOUTHEAST LOUISIANA

CITY           SKY/WX    TMP DP  RH WIND       PRES   REMARKS
N.O. AUDUBON   NOT AVBL
N.O. INTL ARPT FAIR      73  63  70 CALM      29.97F
6HR MIN TEMP:  72; 6HR MAX TEMP:  85;

N.O. LAKEFRONT FAIR      80  64  58 W3        29.98S
6HR MIN TEMP:  77; 6HR MAX TEMP:  84;

N.O. DOWNTOWN* FAIR      79  64  61 CALM      29.98F
6HR MIN TEMP:  79; 6HR MAX TEMP:  86;

RESERVE*       FAIR      70  67  90 CALM      29.98F
6HR MIN TEMP:  69; 6HR MAX TEMP:  85;

SLIDELL        FAIR      66  65  96 CALM      29.97F
6HR MIN TEMP:  66; 6HR MAX TEMP:  84;

BATON ROUGE    FAIR      68  60  75 CALM      29.99S
6HR MIN TEMP:  68; 6HR MAX TEMP:  84;

BOOTHVILLE     FAIR      74  67  78 W5        29.97S
6HR MIN TEMP:  74; 6HR MAX TEMP:  83;

BELLE CHASSE   FAIR      68  66  93 CALM      29.97S
6HR MIN TEMP:  67; 6HR MAX TEMP:  83;

BOGALUSA*      NOT AVBL
GALLIANO*      FAIR      68  65  88 CALM      29.97S
6HR MIN TEMP:  67; 6HR MAX TEMP:  83;

NEW ROADS*     FAIR      67  62  81 CALM      29.99F
6HR MIN TEMP:  67; 6HR MAX TEMP:  82;

GONZALES*      FAIR      65  65 100 CALM      29.97F
6HR MIN TEMP:  65; 6HR MAX TEMP:  81;

HAMMOND*       FAIR      68  59  73 CALM      30.00F
HOUMA*         FAIR      68  65  91 CALM      29.98F
6HR MIN TEMP:  66; 6HR MAX TEMP:  81;

PORT FOURCHON* CLEAR     77  66  69 N6        29.97F

$$

LAZ041-044-053-054-280700-
SOUTHWEST LOUISIANA

CITY           SKY/WX    TMP DP  RH WIND       PRES   REMARKS
LAKE CHARLES   FAIR      69  66  90 CALM      29.99F
6HR MIN TEMP:  69; 6HR MAX TEMP:  87;

LAFAYETTE      FAIR      68  64  87 CALM      29.99F
6HR MIN TEMP:  68; 6HR MAX TEMP:  83;

PATTERSON      FAIR      66  63  88 E6        29.99F
6HR MIN TEMP:  66; 6HR MAX TEMP:  82;

SALT POINT       N/A     72  64  76 CALM      29.96F
6HR MIN TEMP:  72; 6HR MAX TEMP:  82;

NEW IBERIA     FAIR      67  63  87 CALM      29.99F
6HR MIN TEMP:  66; 6HR MAX TEMP:  84;

CHENAULT AIRPK FAIR      69  67  92 CALM      30.00F
6HR MIN TEMP:  68; 6HR MAX TEMP:  86;


$$

LAZ027-028-280700-
CENTRAL LOUISIANA

CITY           SKY/WX    TMP DP  RH WIND       PRES   REMARKS
FORT POLK      FAIR      69  59  70 E5        30.00S
6HR MIN TEMP:  69; 6HR MAX TEMP:  85;

ALEXANDRIA INT FAIR      64  61  90 NW3       30.00S
6HR MIN TEMP:  63; 6HR MAX TEMP:  87;

ALEXANDRIA     FAIR      64  59  83 CALM      30.02R
6HR MIN TEMP:  64; 6HR MAX TEMP:  88;


$$

LAZ001-002-280700-
NORTHWEST LOUISIANA

CITY           SKY/WX    TMP DP  RH WIND       PRES   REMARKS
SHREVEPORT     FAIR      71  63  75 E6        30.02F
6HR MIN TEMP:  69; 6HR MAX TEMP:  85;

BARKSDALE AFB  FAIR      69  63  82 MISG      30.02F
6HR MIN TEMP:  69; 6HR MAX TEMP:  81;

DTN SHREVEPORT FAIR      69  64  84 E3        30.02F
6HR MIN TEMP:  69; 6HR MAX TEMP:  81;


$$

LAZ014-016-280700-
NORTHEAST LOUISIANA

CITY           SKY/WX    TMP DP  RH WIND       PRES   REMARKS
MONROE         FAIR      70  60  70 NE7       30.03F
6HR MIN TEMP:  68; 6HR MAX TEMP:  82;

TALLULAH       FAIR      67  61  81 N6        30.02S
6HR MIN TEMP:  64; 6HR MAX TEMP:  80;


$$




USA.gov is the U.S. government's official web portal to all federal, state and local government web resources and services.